Regional Weather Roundup
Issued by NWS

Home | Current Version | Previous Version | Text Only | Print | Product List | Glossary On
Versions: 1 2 3 4 5 6 7 8 9 10 11 12 13 14 15 16 17 18 19 20 21 22 23 24 25 26 27 28 29 30 31 32 33 34 35 36 37 38 39 40 41 42 43 44 45 46 47 48 49 50
000
ASUS43 KLSX 301810
RWRMO

WEATHER SUMMARY FOR MISSOURI
NATIONAL WEATHER SERVICE SPRINGFIELD MO
100 PM CDT SUN AUG 30 2015

NOTE: "FAIR" INDICATES FEW OR NO CLOUDS BELOW 12,000 FEET WITH NO
       SIGNIFICANT WEATHER AND/OR OBSTRUCTIONS TO VISIBILITY.
       CURRENT SKY AND/OR WEATHER CONDITIONS ARE NOT AVAILABLE FOR
       CHILLICOTHE AND FARMINGTON.

MOZ001>031-035>038-043-044-053-054-301900-
...NORTHERN AND WESTERN MISSOURI...

CITY           SKY/WX    TMP DP  RH WIND       PRES   REMARKS
KANSAS CTY INT CLOUDY    80  65  59 NE8       30.05F
6HR MIN TEMP:  66; 6HR MAX TEMP:  81;

KANSAS C DTWN  MOSUNNY   81  70  69 E6        30.03F
6HR MIN TEMP:  68; 6HR MAX TEMP:  82;

LEE`S SUMMIT   MOSUNNY   79  70  74 E7        30.05F
6HR MIN TEMP:  68; 6HR MAX TEMP:  80;

ST JOSEPH      MOSUNNY   80  68  66 CALM      30.05F
6HR MIN TEMP:  62; 6HR MAX TEMP:  81;

CHILLICOTHE      N/A     81  71  71 VRB3      30.05F
6HR MIN TEMP:  67; 6HR MAX TEMP:  81;

KIRKSVILLE     MOSUNNY   79  68  69 E5        30.07F
6HR MIN TEMP:  67; 6HR MAX TEMP:  80;


$$
MOZ066>068-077>081-088>096-101>105-301900-
...SOUTHWEST MISSOURI...

CITY           SKY/WX    TMP DP  RH WIND       PRES   REMARKS
SPRINGFIELD    MOSUNNY   82  69  64 S12       30.05F
6HR MIN TEMP:  70; 6HR MAX TEMP:  82;

JOPLIN         PTSUNNY   81  71  71 S3        30.02F
6HR MIN TEMP:  68; 6HR MAX TEMP:  82;


$$
MOZ032>034-039>042-045>050-055>058-069>072-301900-
...CENTRAL MISSOURI...

CITY           SKY/WX    TMP DP  RH WIND       PRES   REMARKS
COLUMBIA       SUNNY     83  69  62 SE8       30.04F
6HR MIN TEMP:  68; 6HR MAX TEMP:  84;

JEFFERSON CITY MOSUNNY   83  68  60 NE6       30.02F
6HR MIN TEMP:  66; 6HR MAX TEMP:  84;

ROLLA          MOSUNNY   84  69  60 VRB6      30.03F
6HR MIN TEMP:  66; 6HR MAX TEMP:  85;

SEDALIA        MOSUNNY   85  68  56 VRB6      30.04F
6HR MIN TEMP:  68; 6HR MAX TEMP:  86;

WHITEMAN AFB   MOSUNNY   84  70  64 E6        30.02F
WARRENSBURG    CLOUDY    79  70  73 NE7       30.03F
OSAGE BEACH    MOSUNNY   84  68  58 CALM      30.04F

$$
MOZ051-052-059>065-301900-
...EAST CENTRAL MISSOURI...

CITY           SKY/WX    TMP DP  RH WIND       PRES   REMARKS
ST LOUIS INTL  MOSUNNY   88  67  49 SW5       30.04F HX  91
6HR MIN TEMP:  73; 6HR MAX TEMP:  88;

SPIRIT OF STL  MOSUNNY   85  68  56 CALM      30.02F
6HR MIN TEMP:  67; 6HR MAX TEMP:  85;

ST CHARLES     PTSUNNY   84  69  60 CALM      30.03F
6HR MIN TEMP:  66; 6HR MAX TEMP:  84;


$$
MOZ072>076-082>087-097>100-106>115-301900-
...SOUTH CENTRAL AND SOUTHEAST MISSOURI...

CITY           SKY/WX    TMP DP  RH WIND       PRES   REMARKS
CAPE GIRARDEAU PTSUNNY   80  71  74 S7        30.06F
6HR MIN TEMP:  70; 6HR MAX TEMP:  81;

FARMINGTON     MOSUNNY   84  70  61 S7        30.08F
6HR MIN TEMP:  66; 6HR MAX TEMP:  84;

POPLAR BLUFF   MOSUNNY   84  72  67 S6        30.04F
6HR MIN TEMP:  66; 6HR MAX TEMP:  84;

WEST PLAINS    MOSUNNY   82  69  64 S9        30.08F
6HR MIN TEMP:  68; 6HR MAX TEMP:  82;


$$



USA.gov is the U.S. government's official web portal to all federal, state and local government web resources and services.